This demonstration page uses our WeatherBlox Daily Observations layout. Learn more.

Left ArrowRight Arrow

39.01783, -85.05884

Hourly Observations for January 22, 2022

Temp ( °F °C ) Dew Point ( °F °C ) Humidity (%) Winds ( mph kmh ) Pressure ( in mb ) Visibility ( mi km ) Precip ( " mm )
12:52 am 00:52 Clear 16 -8.9 6 -14.4 65 65 E 3 6 30.46 1031 10 16 0.00 0.00
1:52 am 01:52 Clear 14 -10 6 -14.4 71 71 E 3 6 30.44 1031 10 16 0.00 0.00
2:52 am 02:52 Clear 13 -10.6 6 -14.4 74 74 Calm 30.44 1031 10 16 0.00 0.00
3:52 am 03:52 Clear 12 -11.1 6 -14.4 77 77 S 5 7 30.43 1031 10 16 0.00 0.00
4:52 am 04:52 Clear 10 -12.2 5 -15 80 80 W 6 9 30.45 1031 10 16 0.00 0.00
5:52 am 05:52 Clear 10 -12.2 6 -14.4 84 84 S 3 6 30.42 1030 8 13 0.00 0.00
6:52 am 06:52 Clear 11 -11.7 5 -15 77 77 SSW 5 7 30.43 1031 9 14 0.00 0.00
7:52 am 07:52 Mostly Clear 10 -12.2 4 -15.6 76 76 SW 6 9 30.45 1031 8 13 0.00 0.00
8:52 am 08:52 Mostly Sunny 14 -10 8 -13.3 77 77 SW 7 11 30.43 1031 8 13 0.00 0.00
9:52 am 09:52 Partly Cloudy 18 -7.8 11 -11.7 74 74 SW 10 17 30.42 1030 10 16 0.00 0.00
10:52 am 10:52 Sunny 22 -5.6 12 -11.1 66 66 SW 12 19 30.39 1029 10 16 0.00 0.00
11:52 am 11:52 Mostly Cloudy 25 -3.9 12 -11.1 58 58 SSW 9 15 30.37 1028 10 16 0.00 0.00
12:52 pm 12:52 Mostly Cloudy 28 -2.2 10 -12.2 47 47 SSW 13 20 30.32 1027 10 16 0.00 0.00
1:52 pm 13:52 Mostly Cloudy 30 -1.1 11 -11.7 45 45 SW 10 17 30.27 1025 10 16 0.00 0.00
2:52 pm 14:52 Mostly Cloudy 32 0 10 -12.2 40 40 SSW 13 20 30.25 1024 10 16 0.00 0.00
3:52 pm 15:52 Mostly Cloudy 31 -0.6 10 -12.2 42 42 SW 13 20 30.24 1024 10 16 0.00 0.00
4:52 pm 16:52 Cloudy 31 -0.6 10 -12.2 42 42 SW 12 19 30.22 1023 10 16 0.00 0.00
5:52 pm 17:52 Mostly Cloudy 29 -1.7 10 -12.2 45 45 SW 10 17 30.20 1023 10 16 0.00 0.00
6:52 pm 18:52 Mostly Cloudy 27 -2.8 11 -11.7 51 51 SW 9 15 30.22 1023 10 16 0.00 0.00
7:52 pm 19:52 Mostly Clear 26 -3.3 11 -11.7 53 53 SW 6 9 30.21 1023 10 16 0.00 0.00
8:52 pm 20:52 Clear 26 -3.3 12 -11.1 55 55 SW 9 15 30.20 1023 10 16 0.00 0.00
9:52 pm 21:52 Clear 25 -3.9 12 -11.1 58 58 SW 9 15 30.19 1022 10 16 0.00 0.00
10:52 pm 22:52 Clear 24 -4.4 12 -11.1 60 60 SW 8 13 30.16 1022 10 16 0.00 0.00
11:52 pm 23:52 Partly Cloudy 24 -4.4 12 -11.1 60 60 SW 6 9 30.15 1021 10 16 0.00 0.00

Powered by AerisWeather